Probability
0 0 0 0 0 0 0 0 0 0 0 0 0 3 10 10 16 23 23 29 39 45 55 55 61 58 68 74 90 90 90 90 94 94 94 94 90 90 90 84 81 77 74 74
0 0 0 0 0 0 0 0 0 0 0 0 0 3 10 10 10 19 23 35 39 45 48 61 61 61 71 84 87 87 90 90 90 90 94 97 97 97 97 87 90 81 74 71
0 0 0 0 0 0 0 0 0 0 0 0 0 0 10 13 10 23 26 26 35 42 45 58 58 65 68 77 87 84 90 90 90 90 94 94 94 97 94 87 87 84 81 74
0 0 0 0 0 0 0 0 0 0 0 0 0 0 6 13 16 19 23 32 32 35 48 58 58 58 68 77 81 90 94 97 97 97 97 90 94 87 87 90 87 87 84 84
0 0 0 0 0 0 0 0 0 0 0 0 0 0 3 10 19 26 29 19 29 39 45 58 61 68 68 68 71 84 94 97 97 97 94 94 94 94 90 87 94 90 84 84
0 0 0 0 0 0 0 0 0 0 0 0 0 0 3 10 19 26 29 29 32 39 42 58 65 77 74 74 74 81 90 90 94 90 94 94 94 90 90 94 94 87 84 84
0 0 0 0 0 0 0 0 0 0 0 0 0 0 0 10 19 23 29 29 32 35 42 55 61 71 77 77 77 81 87 90 90 90 90 90 90 87 94 94 94 84 84 84
0 0 0 0 0 0 0 0 0 0 0 0 0 0 3 6 10 13 29 32 32 29 39 48 65 74 74 77 81 84 87 90 90 84 87 90 87 90 87 90 87 87 84 77
0 0 0 0 0 0 0 0 0 0 0 0 0 0 3 6 6 10 16 39 39 35 32 42 58 81 77 77 81 81 84 87 84 81 87 87 87 87 87 87 87 87 81 74
0 0 0 0 0 0 0 0 0 0 0 0 0 0 3 6 6 10 13 32 39 42 42 48 52 65 77 74 77 77 81 84 87 81 84 81 87 84 84 84 84 81 77 81
0 0 0 0 0 0 0 0 0 0 0 0 0 0 3 6 10 13 16 32 42 45 52 52 52 65 68 74 74 74 81 81 81 84 84 84 81 87 84 87 84 77 77 81
0 0 0 0 0 0 0 0 0 0 0 0 0 0 10 10 13 16 23 32 35 42 45 45 55 61 58 61 71 77 81 81 81 84 84 84 84 81 81 84 77 81 77 74
0 0 0 0 0 0 0 0 0 0 0 0 0 0 6 6 10 16 19 29 32 39 42 48 58 55 61 61 65 65 65 68 71 81 77 77 77 77 77 77 77 77 74 77
0 0 0 0 0 0 0 0 0 0 0 0 0 6 6 6 10 13 23 26 32 39 39 45 61 65 65 65 65 61 58 61 65 65 68 74 77 74 74 71 71 71 74 74
0 0 0 0 0 0 0 0 0 0 0 0 3 6 6 10 13 16 19 23 26 35 39 55 65 61 65 65 61 58 61 61 65 65 65 68 65 68 68 68 68 65 68 55
0 0 0 0 0 0 0 0 0 0 0 0 0 6 10 10 13 19 29 32 32 39 42 48 61 65 61 61 58 58 61 65 65 65 68 65 61 65 68 55 58 61 65 61
0 0 0 0 0 0 0 0 0 0 0 0 0 0 6 6 13 16 32 32 42 39 45 52 58 61 61 55 55 61 65 61 65 58 58 58 58 58 55 52 58 61 61 61
0 0 0 0 0 0 0 0 0 0 0 0 3 3 3 6 16 23 26 29 35 48 48 48 52 52 55 55 48 55 58 58 55 58 55 55 55 52 58 58 61 61 58 58
0 6 0 0 0 0 0 0 0 0 0 0 3 3 3 6 13 13 23 32 45 42 42 39 42 42 45 48 48 45 48 48 55 52 52 48 45 45 52 52 55 65 58 55
0 6 0 0 0 0 0 0 0 0 0 0 3 6 6 10 13 19 19 26 32 39 39 39 29 29 39 48 45 48 45 48 45 48 52 48 48 48 45 52 52 52 58 52
0 3 0 0 0 0 0 0 0 0 0 3 3 13 16 23 23 29 32 32 35 35 29 29 32 39 48 55 58 45 42 42 45 42 48 45 45 55 52 55 61 55 45 42
0 0 0 0 0 0 0 3 3 10 6 3 3 10 19 23 26 32 32 35 32 32 26 26 42 35 35 45 45 52 48 45 45 39 39 45 48 32 32 45 48 52 48 48
0 0 0 0 0 0 0 3 6 3 3 3 6 6 13 16 23 32 26 29 26 19 26 29 42 39 39 39 48 55 52 45 42 42 45 45 42 45 45 42 39 45 48 35
0 0 0 0 0 0 0 0 0 0 3 3 3 6 6 13 16 26 32 32 29 32 29 29 29 35 39 42 45 45 48 48 48 48 42 35 32 29 39 42 32 32 32 32
0 0 0 3 3 0 3 3 0 0 0 3 3 6 6 13 10 19 26 29 26 29 29 32 32 42 39 35 39 32 39 42 48 42 39 35 26 19 32 23 29 19 19 19
0 0 0 0 0 3 3 0 0 3 3 3 3 3 3 3 10 13 16 19 23 23 23 23 23 29 35 32 32 39 42 45 48 42 39 23 19 26 19 16 13 6 3 3
Height
5897 5899 5900 5902 5904 5905 5908 5911 5912 5911 5911 5911 5910 5908 5907 5907 5906 5905 5904 5904 5904 5904 5903 5903 5902 5902 5902 5901 5901 5901 5900 5900 5901 5901 5902 5902 5902 5903 5903 5904 5904 5904 5904 5905
5896 5898 5899 5900 5902 5904 5906 5908 5910 5909 5909 5909 5909 5908 5906 5905 5904 5905 5905 5904 5903 5902 5903 5903 5902 5902 5902 5902 5901 5901 5901 5901 5901 5902 5902 5903 5903 5903 5904 5904 5904 5904 5905 5905
5894 5897 5898 5899 5900 5902 5903 5905 5906 5906 5907 5907 5907 5907 5906 5905 5904 5904 5903 5902 5902 5901 5901 5902 5902 5902 5902 5902 5902 5902 5902 5902 5902 5902 5902 5903 5903 5903 5904 5904 5905 5905 5904 5904
5891 5894 5895 5896 5897 5899 5900 5902 5902 5902 5903 5904 5905 5904 5903 5903 5903 5902 5902 5901 5901 5901 5900 5900 5901 5901 5902 5902 5902 5902 5902 5902 5902 5903 5903 5903 5903 5903 5904 5904 5904 5904 5904 5904
5888 5890 5891 5892 5894 5895 5897 5898 5898 5899 5899 5900 5901 5902 5902 5899 5900 5900 5900 5899 5899 5898 5898 5899 5900 5900 5900 5901 5901 5901 5901 5901 5902 5902 5902 5902 5903 5903 5903 5903 5903 5903 5903 5903
5885 5887 5888 5889 5891 5892 5893 5895 5895 5895 5896 5897 5898 5899 5899 5896 5897 5897 5897 5897 5897 5896 5896 5897 5897 5898 5898 5899 5899 5900 5900 5900 5901 5901 5901 5901 5902 5902 5902 5902 5902 5902 5902 5902
5881 5883 5884 5886 5887 5889 5890 5892 5892 5893 5894 5894 5895 5896 5896 5893 5893 5894 5894 5895 5895 5895 5894 5895 5895 5895 5896 5896 5897 5898 5898 5898 5899 5899 5899 5900 5900 5900 5900 5900 5900 5900 5900 5900
5878 5880 5881 5882 5882 5884 5886 5888 5890 5891 5891 5891 5891 5892 5892 5890 5890 5891 5892 5892 5893 5893 5893 5893 5893 5893 5893 5894 5895 5895 5896 5896 5896 5897 5897 5897 5897 5898 5898 5898 5898 5898 5898 5897
5875 5878 5879 5878 5879 5880 5882 5883 5886 5888 5888 5888 5889 5889 5888 5888 5887 5887 5887 5888 5889 5890 5890 5890 5890 5890 5890 5891 5891 5892 5893 5893 5894 5894 5894 5894 5895 5895 5895 5895 5895 5895 5894 5894
5870 5871 5873 5874 5875 5875 5877 5879 5882 5883 5884 5884 5886 5886 5885 5884 5884 5884 5884 5884 5884 5885 5886 5887 5887 5887 5887 5887 5887 5888 5889 5889 5890 5890 5891 5891 5891 5891 5891 5891 5891 5891 5891 5890
5864 5866 5868 5869 5870 5872 5873 5874 5875 5877 5879 5880 5881 5883 5879 5879 5880 5880 5879 5879 5880 5881 5882 5882 5882 5882 5882 5882 5882 5883 5884 5885 5885 5886 5886 5886 5887 5887 5887 5887 5887 5887 5886 5886
5859 5861 5862 5864 5866 5867 5868 5869 5871 5872 5873 5874 5875 5878 5873 5874 5874 5874 5874 5874 5875 5875 5876 5876 5877 5876 5876 5876 5877 5878 5879 5879 5880 5880 5881 5881 5882 5882 5882 5882 5882 5881 5881 5881
5853 5855 5857 5859 5863 5863 5862 5863 5865 5867 5868 5869 5870 5872 5869 5868 5867 5867 5866 5867 5868 5869 5870 5871 5871 5871 5871 5871 5871 5871 5872 5873 5874 5874 5875 5875 5876 5876 5876 5876 5876 5875 5875 5875
5847 5849 5851 5854 5856 5856 5857 5858 5859 5860 5862 5863 5864 5864 5863 5861 5859 5860 5858 5859 5859 5862 5863 5864 5864 5865 5865 5865 5865 5865 5865 5866 5867 5868 5868 5869 5869 5869 5869 5869 5869 5869 5868 5868
5840 5842 5843 5845 5848 5850 5850 5853 5854 5854 5855 5857 5857 5856 5856 5855 5854 5853 5852 5853 5853 5855 5857 5857 5858 5858 5858 5858 5858 5859 5858 5859 5859 5860 5861 5862 5862 5862 5862 5862 5862 5861 5861 5861
5831 5833 5835 5837 5840 5841 5842 5844 5846 5848 5849 5849 5849 5849 5849 5847 5846 5845 5845 5845 5845 5847 5849 5850 5850 5851 5851 5850 5849 5850 5850 5850 5851 5852 5853 5853 5854 5854 5854 5853 5853 5853 5853 5853
5823 5825 5827 5829 5831 5832 5834 5837 5838 5839 5840 5842 5842 5842 5841 5839 5838 5836 5836 5836 5837 5839 5840 5841 5842 5842 5842 5842 5842 5842 5841 5842 5843 5844 5844 5845 5845 5845 5845 5845 5845 5844 5844 5845
5816 5817 5818 5820 5822 5823 5829 5829 5830 5830 5831 5833 5832 5832 5831 5831 5829 5827 5827 5828 5829 5830 5831 5831 5832 5832 5833 5833 5833 5833 5833 5833 5834 5835 5835 5836 5836 5836 5836 5836 5836 5836 5836 5837
5808 5808 5809 5811 5812 5814 5819 5820 5820 5820 5821 5822 5821 5821 5822 5820 5819 5818 5818 5819 5820 5821 5821 5821 5821 5822 5821 5822 5823 5824 5823 5825 5826 5826 5826 5826 5826 5826 5826 5826 5827 5827 5827 5827
5799 5799 5801 5802 5803 5806 5810 5811 5809 5811 5811 5810 5810 5811 5812 5811 5811 5809 5809 5809 5809 5810 5811 5811 5811 5811 5810 5812 5814 5815 5815 5816 5817 5817 5817 5816 5816 5816 5816 5817 5818 5818 5818 5818
5790 5791 5791 5792 5793 5795 5798 5797 5799 5801 5801 5800 5800 5801 5802 5802 5801 5800 5799 5798 5799 5799 5800 5800 5800 5800 5801 5802 5804 5805 5805 5806 5806 5806 5806 5806 5806 5806 5806 5806 5807 5808 5808 5808
5781 5782 5783 5783 5783 5787 5785 5786 5787 5787 5788 5789 5790 5790 5790 5791 5791 5790 5790 5789 5789 5788 5788 5789 5791 5791 5792 5793 5794 5795 5795 5795 5796 5796 5796 5796 5796 5796 5796 5796 5797 5797 5797 5797
5771 5773 5772 5773 5774 5774 5774 5775 5775 5776 5777 5777 5778 5778 5779 5779 5779 5779 5779 5779 5778 5777 5777 5779 5780 5781 5782 5783 5784 5784 5784 5784 5785 5785 5786 5786 5786 5786 5786 5786 5787 5787 5787 5787
5760 5761 5762 5763 5764 5763 5763 5763 5764 5765 5765 5766 5766 5767 5767 5767 5768 5768 5768 5768 5768 5768 5768 5769 5770 5771 5772 5772 5773 5773 5773 5774 5774 5775 5775 5775 5776 5776 5776 5776 5775 5775 5776 5776
5750 5750 5750 5751 5753 5753 5752 5751 5751 5752 5753 5754 5754 5754 5755 5755 5755 5756 5757 5757 5758 5758 5759 5759 5759 5760 5761 5762 5762 5763 5763 5763 5764 5764 5765 5765 5765 5765 5765 5764 5765 5765 5765 5765
5740 5740 5739 5739 5740 5740 5741 5740 5740 5740 5740 5741 5741 5742 5742 5742 5743 5744 5745 5745 5746 5747 5748 5749 5749 5750 5751 5752 5752 5752 5752 5753 5753 5754 5754 5754 5755 5754 5754 5754 5755 5755 5755 5755
Wind_Speed
7 7 7 7 8 7 6 7 10 10 9 10 11 12 11 10 9 8 8 8 8 7 7 7 7 7 6 6 5 5 4 3 2 2 2 1 1 1 1 1 2 2 2 3
8 8 9 10 10 10 10 11 12 11 11 13 13 12 13 12 11 10 10 11 10 8 7 7 7 6 6 5 4 4 4 3 3 2 1 1 1 1 1 1 1 2 3 3
10 10 11 11 11 12 13 12 13 12 12 13 12 13 14 13 13 13 12 11 11 10 8 8 7 6 6 5 4 4 4 4 3 2 2 2 2 2 2 2 3 3 3 4
13 13 13 14 13 13 13 13 15 14 15 14 13 15 16 15 14 15 14 13 12 12 11 9 8 7 7 7 6 5 4 5 4 4 3 4 4 3 3 3 4 5 5 6
14 14 15 15 14 14 15 15 16 16 16 16 15 15 18 16 15 15 14 13 13 14 13 11 9 8 8 8 7 6 6 6 6 5 5 5 5 5 5 6 6 7 7 7
15 15 16 16 15 16 16 16 16 14 14 15 14 15 18 19 16 16 16 15 14 15 12 12 11 10 8 9 9 8 8 7 7 7 7 7 7 7 7 7 8 8 9 9
15 16 16 16 16 15 16 15 15 14 14 15 13 14 18 20 19 17 17 16 16 14 13 13 13 12 12 11 10 10 10 10 10 9 10 10 9 9 9 9 9 9 10 11
16 17 16 17 17 16 16 16 16 16 14 14 12 13 17 20 18 17 18 17 16 15 14 15 15 15 14 13 13 12 12 12 12 12 12 12 12 11 11 11 11 11 12 12
15 16 17 19 19 18 18 18 16 18 18 18 17 16 18 17 19 18 19 18 17 16 15 15 15 16 16 16 15 15 15 14 14 14 14 13 14 13 13 13 13 14 14 14
18 19 17 19 19 18 19 18 18 18 19 19 17 18 19 20 19 19 19 19 19 18 17 17 17 17 19 19 18 17 18 17 16 16 16 16 15 16 16 16 16 16 16 16
19 20 18 17 17 17 18 18 20 21 20 19 19 19 18 19 20 21 21 21 21 20 18 18 19 19 20 21 21 20 19 19 19 19 18 18 18 18 19 19 19 19 18 18
20 19 20 18 16 18 18 19 20 21 22 22 21 20 21 20 22 23 24 23 22 23 22 21 21 21 21 22 22 22 22 21 21 21 21 21 21 21 21 21 21 21 21 21
21 21 21 18 16 18 20 20 21 22 24 23 23 23 23 24 24 24 25 25 25 25 24 24 23 23 23 23 24 23 23 23 23 23 24 24 23 24 25 24 24 24 24 23
24 24 23 21 18 17 19 20 21 21 23 24 24 26 25 26 26 25 27 25 25 26 26 25 26 25 25 25 25 26 25 25 25 25 25 26 26 27 27 27 27 27 26 26
27 27 26 26 23 22 22 22 22 23 24 24 25 26 26 27 28 28 28 27 28 28 27 27 27 27 27 27 27 28 28 27 28 28 27 28 28 28 29 30 30 30 29 28
28 29 28 28 27 27 27 26 25 26 25 25 26 28 28 32 32 31 31 31 32 31 30 30 30 29 29 29 29 29 31 30 30 30 30 30 30 30 31 31 31 31 31 29
29 30 30 30 29 29 29 26 25 27 28 28 29 30 30 32 33 33 33 34 34 34 33 33 33 32 32 32 32 31 31 31 31 31 32 32 32 33 32 33 33 32 31 30
30 31 31 31 30 32 29 26 26 28 29 28 29 31 32 33 34 36 36 36 36 35 35 35 35 35 34 33 33 33 32 32 32 32 33 34 34 35 34 34 33 33 33 32
32 32 32 31 31 31 29 27 27 27 30 30 32 33 33 34 36 38 39 38 38 37 36 36 36 36 35 35 35 35 34 33 33 34 34 35 36 36 36 35 35 35 34 34
31 33 33 32 32 32 29 28 30 31 31 33 35 36 35 34 35 38 39 39 39 37 37 36 36 36 36 36 36 36 35 35 36 36 36 36 37 37 37 37 37 37 37 36
30 32 32 33 33 33 32 32 32 33 35 36 36 37 36 36 37 39 40 39 39 38 38 38 37 36 36 36 36 36 36 37 37 37 37 36 36 37 37 37 38 38 37 36
31 30 31 32 33 33 35 35 35 36 37 37 38 39 39 39 39 40 41 42 41 40 38 37 37 37 37 37 36 36 37 37 37 37 36 36 37 36 36 37 37 37 37 36
33 33 32 33 34 36 37 38 38 38 38 38 39 40 40 40 40 42 42 42 42 41 37 36 37 37 37 38 38 37 37 37 38 37 38 38 38 37 37 38 37 37 37 37
33 35 36 36 37 37 38 39 40 40 40 40 40 41 41 42 42 42 42 42 41 41 39 38 38 38 38 38 38 38 38 38 38 38 38 38 38 38 38 39 39 38 38 38
35 36 38 37 37 38 39 41 41 41 41 41 42 43 43 43 43 42 42 42 42 42 41 39 38 38 37 37 38 39 39 38 38 38 38 38 38 38 38 37 37 38 38 38
35 36 38 39 38 39 39 39 40 41 41 41 42 43 42 42 42 42 41 42 42 42 42 41 40 39 38 38 39 39 38 37 37 37 37 37 37 37 38 37 37 37 37 37
Wind_Direction
223 225 227 231 240 223 220 248 267 266 270 273 276 284 288 290 303 310 314 315 323 324 330 337 343 350 354 360 0 6 9 18 25 29 35 37 62 67 43 38 33 20 6 358
229 240 247 235 234 231 231 241 249 258 263 266 267 279 283 287 287 295 300 299 308 309 313 318 326 332 340 346 349 357 5 5 1 353 345 336 333 338 337 345 346 349 345 341
234 238 252 250 239 233 241 247 249 247 256 267 266 270 273 281 283 286 290 295 299 301 301 302 309 313 317 325 332 329 335 342 339 332 318 311 313 306 310 314 323 331 335 333
239 237 243 248 248 235 240 248 252 249 250 256 259 265 270 277 277 279 280 283 290 290 293 296 298 302 304 307 308 307 304 309 312 309 303 300 302 299 299 300 307 309 314 321
242 245 246 249 249 242 240 248 252 253 255 257 256 260 268 268 271 275 275 277 283 286 287 288 286 288 294 299 299 300 298 294 294 296 296 292 294 296 296 297 301 301 303 307
241 246 251 252 249 248 245 248 252 257 261 261 262 260 266 265 265 274 276 276 278 279 276 277 280 280 282 289 290 292 293 291 286 286 289 290 288 290 291 291 297 298 299 302
251 250 251 252 249 248 247 249 255 259 263 264 266 267 267 268 267 268 270 273 274 275 274 272 274 279 279 279 283 286 285 284 282 283 285 283 280 282 285 289 292 295 296 298
258 264 260 253 251 247 247 242 248 259 266 271 268 258 262 271 272 271 268 265 268 271 270 269 272 276 279 279 278 280 281 279 278 280 282 280 279 282 284 287 290 292 295 296
241 252 258 258 255 251 243 244 244 254 260 267 269 263 258 267 272 271 271 266 263 263 265 264 268 274 277 276 276 277 278 277 277 275 277 279 280 282 284 285 288 290 291 291
237 239 244 257 261 252 244 239 240 243 252 258 262 265 266 265 267 271 271 268 266 265 263 264 263 268 272 274 274 275 276 275 276 275 274 277 279 280 282 283 286 288 289 289
239 239 241 249 259 256 253 245 241 243 242 251 259 263 262 262 265 268 268 270 269 267 265 265 268 268 269 270 270 271 272 273 273 274 274 276 278 279 280 281 282 285 285 285
242 241 241 240 247 256 253 247 246 247 247 247 253 261 265 263 264 265 265 265 265 262 262 263 265 268 266 267 269 269 268 270 271 271 272 273 277 280 281 281 282 283 282 282
242 243 244 244 245 250 252 251 247 246 249 252 253 258 260 260 261 266 267 262 259 261 263 265 265 266 266 266 268 268 268 268 269 270 270 272 275 277 279 279 280 280 280 279
249 247 244 242 242 247 251 252 252 253 253 254 253 254 256 260 264 263 265 261 258 261 265 265 264 264 264 265 266 267 268 267 268 269 269 271 274 275 275 277 279 279 280 278
252 250 248 244 239 244 248 249 251 253 253 254 256 257 256 258 261 265 266 262 261 260 264 266 266 265 264 264 267 267 268 269 268 269 270 272 273 274 274 276 278 277 277 276
255 254 252 250 244 244 249 251 251 251 254 255 257 261 262 260 261 262 265 265 264 265 265 266 266 265 264 266 267 267 268 270 269 269 270 271 272 273 274 275 277 276 275 275
258 258 256 255 252 251 251 253 255 255 253 253 255 258 260 262 265 266 266 266 268 268 267 267 266 266 266 268 269 269 269 268 269 269 270 271 271 272 274 275 276 276 275 274
259 259 260 259 256 254 255 252 253 256 255 254 255 257 259 259 263 265 266 267 269 269 267 267 267 266 266 266 267 268 268 268 269 269 269 270 270 271 272 273 272 275 276 276
259 260 260 260 259 260 259 257 255 256 256 254 254 256 258 260 262 264 266 267 269 269 268 266 267 265 262 264 266 267 267 268 268 269 270 270 271 270 270 270 271 273 275 275
261 261 261 260 259 259 258 258 256 255 256 257 257 258 261 262 265 268 271 270 270 269 267 266 267 265 263 263 263 265 267 267 268 268 269 270 271 270 270 269 271 272 273 274
263 264 263 262 261 259 258 257 258 257 255 257 259 261 262 263 265 266 268 269 270 270 270 268 268 269 264 263 263 263 264 266 267 268 269 271 272 271 269 269 271 272 272 272
260 263 264 263 261 258 257 257 256 258 260 259 260 262 262 264 264 265 266 268 269 269 269 268 268 268 266 265 264 265 265 265 266 267 269 270 271 271 270 270 271 272 273 273
255 255 254 256 258 260 261 260 259 260 260 261 261 262 263 264 264 264 266 268 269 268 266 267 268 268 266 266 265 266 266 265 266 267 268 268 269 269 269 270 271 273 273 273
255 256 256 256 259 260 262 262 262 262 262 262 262 263 263 264 265 265 266 267 267 266 267 267 267 267 266 265 265 266 266 266 267 268 268 268 268 268 269 268 269 271 271 273
255 257 258 260 260 261 263 264 264 263 263 262 261 262 264 265 265 265 265 265 265 265 265 266 266 265 265 265 265 265 265 266 267 268 268 268 269 270 270 270 270 272 272 272
259 259 259 260 260 260 261 264 265 265 265 265 264 263 263 264 264 265 265 264 265 265 265 265 265 265 265 265 265 266 266 267 268 268 268 268 269 270 271 271 270 271 272 273